Terug naar catalogus

STARLINK-5107

ActiefCommunicatieVLEO
NORAD 54826·PAYLOAD·🇺🇸 United States

Gelanceerd Dec 28, 2022 vanaf Cape Canaveral Space Force Station

Loading…

Volgende Passages (komende 24 uur)

TLE

VersSource: CelesTrak SupGP

Epoch: Sep 15, 2026, 02:55 UTC

1 54826C 22177G   26258.12201389  .00052906  00000+0  19164-2 0  2585
2 54826  43.0000 146.3069 0001066 262.8897 102.8777 15.27550325    16

Volg STARLINK-5107 in realtime met AllMySat

Download on the App Store